TimeCST,TemperatureF,Dew PointF,Humidity,Sea Level PressureIn,VisibilityMPH,Wind Direction,Wind SpeedMPH,Gust SpeedMPH,PrecipitationIn,Events,Conditions,WindDirDegrees,DateUTC
12:15 AM,62.6,62.6,100,30.22,0.5,Calm,Calm,-,N/A,Fog,Fog,0,2012-12-03 06:15:00
12:35 AM,62.6,62.6,100,30.21,0.5,ESE,3.5,-,N/A,Fog,Fog,110,2012-12-03 06:35:00
12:55 AM,62.6,62.6,100,30.21,0.2,Calm,Calm,-,N/A,Fog,Fog,0,2012-12-03 06:55:00
1:15 AM,62.6,62.6,100,30.21,0.2,Calm,Calm,-,N/A,Fog,Fog,0,2012-12-03 07:15:00
1:35 AM,62.6,62.6,100,30.21,0.5,Calm,Calm,-,N/A,Fog,Fog,0,2012-12-03 07:35:00
1:55 AM,62.6,62.6,100,30.21,0.5,Calm,Calm,-,N/A,Fog,Fog,0,2012-12-03 07:55:00
2:15 AM,60.8,60.8,100,30.21,0.5,Calm,Calm,-,N/A,Fog,Fog,0,2012-12-03 08:15:00
2:35 AM,60.8,60.8,100,30.21,0.2,Calm,Calm,-,N/A,Fog,Fog,0,2012-12-03 08:35:00
2:55 AM,60.8,60.8,100,30.21,0.5,Calm,Calm,-,N/A,Fog,Fog,0,2012-12-03 08:55:00
3:15 AM,59.0,59.0,100,30.21,0.2,Calm,Calm,-,N/A,Fog,Fog,0,2012-12-03 09:15:00
3:35 AM,59.0,59.0,100,30.21,0.2,Calm,Calm,-,N/A,Fog,Fog,0,2012-12-03 09:35:00
3:55 AM,59.0,59.0,100,30.21,0.2,East,3.5,-,N/A,Fog,Fog,90,2012-12-03 09:55:00
4:15 AM,59.0,59.0,100,30.21,0.5,Calm,Calm,-,N/A,Fog,Fog,0,2012-12-03 10:15:00
4:35 AM,59.0,59.0,100,30.20,0.5,Calm,Calm,-,N/A,Fog,Fog,0,2012-12-03 10:35:00
4:55 AM,57.2,57.2,100,30.20,0.5,Calm,Calm,-,N/A,Fog,Fog,0,2012-12-03 10:55:00
5:15 AM,57.2,57.2,100,30.21,0.5,Calm,Calm,-,N/A,Fog,Fog,0,2012-12-03 11:15:00
5:35 AM,57.2,57.2,100,30.21,1.5,Calm,Calm,-,N/A,,Overcast,0,2012-12-03 11:35:00
5:55 AM,57.2,57.2,100,30.21,10.0,Calm,Calm,-,N/A,,Overcast,0,2012-12-03 11:55:00
6:15 AM,57.2,57.2,100,30.22,10.0,Calm,Calm,-,N/A,,Mostly Cloudy,0,2012-12-03 12:15:00
6:35 AM,57.2,57.2,100,30.22,10.0,Calm,Calm,-,N/A,,Mostly Cloudy,0,2012-12-03 12:35:00
6:55 AM,57.2,57.2,100,30.23,10.0,Calm,Calm,-,N/A,,Scattered Clouds,0,2012-12-03 12:55:00
7:15 AM,59.0,59.0,100,30.23,10.0,ESE,4.6,-,N/A,,Scattered Clouds,110,2012-12-03 13:15:00
7:35 AM,59.0,59.0,100,30.22,10.0,East,5.8,-,N/A,,Scattered Clouds,100,2012-12-03 13:35:00
7:55 AM,60.8,60.8,100,30.23,10.0,ESE,4.6,-,N/A,,Scattered Clouds,110,2012-12-03 13:55:00
8:15 AM,62.6,62.6,100,30.23,10.0,ESE,5.8,-,N/A,,Scattered Clouds,110,2012-12-03 14:15:00
8:35 AM,64.4,64.4,100,30.23,10.0,ESE,5.8,-,N/A,,Clear,120,2012-12-03 14:35:00
8:55 AM,66.2,64.4,94,30.23,10.0,ESE,4.6,-,N/A,,Clear,120,2012-12-03 14:55:00
9:15 AM,68.0,66.2,94,30.23,10.0,SE,8.1,-,N/A,,Clear,130,2012-12-03 15:15:00
9:35 AM,71.6,66.2,83,30.23,10.0,SE,9.2,-,N/A,,Clear,130,2012-12-03 15:35:00
9:55 AM,73.4,66.2,78,30.23,10.0,SE,9.2,16.1,N/A,,Clear,140,2012-12-03 15:55:00
10:15 AM,75.2,66.2,73,30.23,10.0,SE,10.4,18.4,N/A,,Clear,140,2012-12-03 16:15:00
10:35 AM,75.2,66.2,73,30.22,10.0,SE,13.8,20.7,N/A,,Clear,140,2012-12-03 16:35:00
10:55 AM,77.0,66.2,69,30.22,10.0,SE,13.8,20.7,N/A,,Scattered Clouds,140,2012-12-03 16:55:00
11:15 AM,77.0,66.2,69,30.22,10.0,SE,13.8,-,N/A,,Scattered Clouds,140,2012-12-03 17:15:00
11:35 AM,77.0,66.2,69,30.21,10.0,SE,16.1,-,N/A,,Scattered Clouds,140,2012-12-03 17:35:00
11:55 AM,75.2,64.4,69,30.20,10.0,SSE,13.8,20.7,N/A,,Scattered Clouds,160,2012-12-03 17:55:00
12:15 PM,77.0,66.2,69,30.19,10.0,SSE,16.1,19.6,N/A,,Mostly Cloudy,150,2012-12-03 18:15:00
12:35 PM,75.2,64.4,69,30.18,10.0,SE,13.8,17.3,N/A,,Mostly Cloudy,130,2012-12-03 18:35:00
12:55 PM,77.0,64.4,65,30.17,10.0,SE,12.7,17.3,N/A,,Mostly Cloudy,130,2012-12-03 18:55:00
1:15 PM,75.2,64.4,69,30.17,10.0,SE,12.7,-,N/A,,Mostly Cloudy,130,2012-12-03 19:15:00
1:35 PM,75.2,64.4,69,30.16,10.0,SSE,13.8,18.4,N/A,,Scattered Clouds,150,2012-12-03 19:35:00
1:55 PM,78.8,64.4,61,30.15,10.0,SE,12.7,18.4,N/A,,Clear,130,2012-12-03 19:55:00
2:15 PM,78.8,62.6,57,30.15,10.0,SE,12.7,19.6,N/A,,Clear,140,2012-12-03 20:15:00
2:55 PM,77.0,62.6,61,30.15,10.0,SE,9.2,-,N/A,,Clear,140,2012-12-03 20:55:00
3:15 PM,77.0,64.4,65,30.15,10.0,ESE,10.4,-,N/A,,Clear,120,2012-12-03 21:15:00
3:35 PM,75.2,64.4,69,30.15,10.0,ESE,10.4,-,N/A,,Clear,110,2012-12-03 21:35:00
3:55 PM,73.4,64.4,73,30.15,10.0,ESE,6.9,-,N/A,,Clear,110,2012-12-03 21:55:00
4:15 PM,73.4,64.4,73,30.16,10.0,SE,10.4,-,N/A,,Clear,130,2012-12-03 22:15:00
4:35 PM,71.6,64.4,78,30.17,10.0,SE,8.1,-,N/A,,Scattered Clouds,130,2012-12-03 22:35:00
4:55 PM,71.6,64.4,78,30.18,10.0,SE,8.1,-,N/A,,Scattered Clouds,130,2012-12-03 22:55:00
5:15 PM,69.8,64.4,83,30.17,10.0,SE,9.2,-,N/A,,Scattered Clouds,130,2012-12-03 23:15:00
5:35 PM,69.8,64.4,83,30.17,10.0,SE,8.1,-,N/A,,Scattered Clouds,130,2012-12-03 23:35:00
5:55 PM,68.0,64.4,88,30.17,10.0,SE,6.9,-,N/A,,Clear,130,2012-12-03 23:55:00
6:15 PM,68.0,64.4,88,30.17,10.0,SE,6.9,-,N/A,,Clear,130,2012-12-04 00:15:00
6:35 PM,68.0,64.4,88,30.17,10.0,SE,6.9,-,N/A,,Clear,130,2012-12-04 00:35:00
6:55 PM,68.0,66.2,94,30.18,10.0,SE,8.1,-,N/A,,Clear,130,2012-12-04 00:55:00
7:15 PM,66.2,64.4,94,30.18,10.0,SE,6.9,-,N/A,,Clear,130,2012-12-04 01:15:00
7:35 PM,66.2,66.2,100,30.18,10.0,SE,8.1,-,N/A,,Clear,130,2012-12-04 01:35:00
7:55 PM,66.2,66.2,100,30.18,10.0,SE,8.1,-,N/A,,Clear,130,2012-12-04 01:55:00
8:15 PM,66.2,64.4,94,30.18,10.0,SE,6.9,-,N/A,,Clear,140,2012-12-04 02:15:00
8:35 PM,66.2,64.4,94,30.19,10.0,SE,5.8,-,N/A,,Clear,140,2012-12-04 02:35:00
8:55 PM,64.4,64.4,100,30.19,10.0,SE,6.9,-,N/A,,Clear,130,2012-12-04 02:55:00
9:15 PM,66.2,66.2,100,30.18,10.0,SE,6.9,-,N/A,,Mostly Cloudy,130,2012-12-04 03:15:00
9:35 PM,66.2,66.2,100,30.18,10.0,SE,8.1,-,N/A,,Overcast,140,2012-12-04 03:35:00
9:55 PM,66.2,64.4,94,30.18,10.0,SE,5.8,-,N/A,,Mostly Cloudy,130,2012-12-04 03:55:00
10:15 PM,66.2,64.4,94,30.19,10.0,SE,6.9,-,N/A,,Scattered Clouds,130,2012-12-04 04:15:00
10:35 PM,66.2,66.2,100,30.19,10.0,SE,5.8,-,N/A,,Mostly Cloudy,130,2012-12-04 04:35:00
10:55 PM,66.2,66.2,100,30.19,10.0,SE,5.8,-,N/A,,Overcast,130,2012-12-04 04:55:00
11:15 PM,66.2,66.2,100,30.18,10.0,SE,4.6,-,N/A,,Overcast,130,2012-12-04 05:15:00
11:35 PM,66.2,64.4,94,30.18,10.0,SE,8.1,-,N/A,,Mostly Cloudy,140,2012-12-04 05:35:00
11:55 PM,66.2,66.2,100,30.17,10.0,SE,6.9,-,N/A,,Mostly Cloudy,140,2012-12-04 05:55:00